Volver al catálogo

STARLINK-31378

ActivoComunicacionesVLEO
NORAD 58932·PAYLOAD·🇺🇸 United States

Lanzado Feb 10, 2024 desde Vandenberg Space Force Base

Loading…

Próximos Pases (próximas 24 horas)

TLE

ActualizadoSource: CelesTrak SupGP

Época: Sep 15, 2026, 02:48 UTC

1 58932C 24027B   26258.11715278 -.00018692  00000+0 -60124-3 0  2588
2 58932  53.1564 148.1672 0001456  85.2853 249.2895 15.31702248    12

Sigue STARLINK-31378 en tiempo real con AllMySat

Download on the App Store